sat.trackr.live / text

‹ back to catalog

STARLINK-37568

NORAD 69492 · 2026-131Q

PAYLOAD ACTIVE UNKNOWN

§ Identity

Operator
Country
US
Launch date
2026-06-11
Launch site
AFWTR
Launch vehicle
Mass (kg)
RCS (m²)

Purposes: comms

External: N2YO · Heavens-Above · Gunter

§ Orbital elements

Epoch: 2026-09-18T19:59:19.319136Z

Period
93.91 min
Inclination
97.2848°
Eccentricity
0.0000781
Mean motion
15.33443781 rev/d
Perigee alt
465.0 km
Apogee alt
466.1 km
Semi-major
6,843.7 km
B*
3.5161e-4
RAAN
282.7466°
Arg perigee
87.2802°
Mean anomaly
272.8530°
Rev number
1,664

§ Raw data

STARLINK-375681 69492U 26131Q   26261.83286249  .00011293  00000+0  35161-3 0  99962 69492  97.2848 282.7466 0000781  87.2802 272.8530 15.33443781 16641

JSON: /api/v1/satellites/69492 · /tle

For live sub-satellite position, see the globe view (requires WebGL).

§ Visibility from observer

Set your observer location to see the next 7 days of passes ≥ 10°. The values pass through the URL so the page stays shareable.

No JS? Fill the form by hand. The geolocation button needs JavaScript.